Location: Chenereilles
(45.4866°N, 4.0790°E)
Time: 14:06:06
(UTC+00:00)

Ariane Rocket - Pass Details

Date: 12 November 2019
Orbit: 759 x 771 km, 98.8° (Epoch: 05 December)

Event Time Altitude Azimuth Distance (km) Brightness Sun altitude
Exits shadow 17:25:08 17° 79° (E) 1,894 4.4 -12.1°
Maximum altitude 17:26:30 18° 59° (ENE) 1,803 4.3 -12.3°
Drops below altitude 10° 17:29:55 10° 17° (NNE) 2,318 5.2 -12.9°
Sets 17:32:52 0° 360° (N) 3,247 6.1 -13.4°
